This is the latest recevied weather packets stored in our database for station/object F4GMT-11. If no packets are shown the sender has not sent any weather packets the latest 10 day(s).
| Time | Temp. | Humidity | Pressure | Rain* | Wind** | Luminosity | Snow |
|---|---|---|---|---|---|---|---|
| 1778127438 | 12.22° C | 58% | 1013.7 hPa | - | - | - | - |
| 1778120238 | 12.78° C | 58% | 1014 hPa | - | - | - | - |
| 1778119038 | 13.33° C | 58% | 1014.1 hPa | - | - | - | - |
| 1778116638 | 13.33° C | 58% | 1014.1 hPa | - | - | - | - |
| 1778110638 | 14.44° C | 59% | 1014.9 hPa | - | - | - | - |
| 1778105840 | 15° C | 59% | 1015.1 hPa | - | - | - | - |
| 1778099838 | 16.11° C | 59% | 1015.2 hPa | - | - | - | - |
| 1778098638 | 16.11° C | 59% | 1015 hPa | - | - | - | - |
| 1778097440 | 16.67° C | 59% | 1014.8 hPa | - | - | - | - |
| 1778096240 | 16.67° C | 60% | 1014.7 hPa | - | - | - | - |
| 1778087839 | 17.78° C | 61% | 1014.1 hPa | - | - | - | - |
| 1778085437 | 17.78° C | 61% | 1014 hPa | - | - | - | - |
| 1778080638 | 17.78° C | 61% | 1014.2 hPa | - | - | - | - |
| 1778066235 | 16.11° C | 63% | 1013.8 hPa | - | - | - | - |
| 1778045834 | 15° C | 59% | 1012.5 hPa | - | - | - | - |
| 1778031437 | 15.56° C | 58% | 1012.7 hPa | - | - | - | - |
| 1778025436 | 16.11° C | 58% | 1013.6 hPa | - | - | - | - |
| 1778009831 | 18.33° C | 56% | 1013.5 hPa | - | - | - | - |
| 1778001431 | 19.44° C | 56% | 1013.2 hPa | - | - | - | - |
| 1777984631 | 18.33° C | 61% | 1013.6 hPa | - | - | - | - |
| 1777942630 | 16.11° C | 60% | 1013.9 hPa | - | - | - | - |
| 1777905426 | 18.33° C | 61% | 1013.6 hPa | - | - | - | - |
| 1777895826 | 18.33° C | 62% | 1013.5 hPa | - | - | - | - |
| 1777887426 | 17.78° C | 63% | 1012.9 hPa | - | - | - | - |
| 1777865825 | 17.78° C | 59% | 1011.6 hPa | - | - | - | - |
* Rain since midnight (hover to see other rain measurements)
** Current wind speed in m/s (hover to see current wind gust speed)